sat.trackr.live / text

‹ back to catalog

STARLINK-37028

NORAD 68270 · 2026-055J

PAYLOAD ACTIVE UNKNOWN

§ Identity

Operator
Country
US
Launch date
2026-03-19
Launch site
AFETR
Launch vehicle
Mass (kg)
RCS (m²)

Purposes: comms

External: N2YO · Heavens-Above · Gunter

§ Orbital elements

Epoch: 2026-05-24T18:48:17.973504Z

Period
93.85 min
Inclination
53.1593°
Eccentricity
0.0001098
Mean motion
15.34398846 rev/d
Perigee alt
462.0 km
Apogee alt
463.5 km
Semi-major
6,840.8 km
B*
6.4382e-4
RAAN
326.3639°
Arg perigee
81.1755°
Mean anomaly
278.9372°
Rev number
1,157

§ Raw data

STARLINK-370281 68270U 26055J   26144.78354136  .00021438  00000+0  64382-3 0  99982 68270  53.1593 326.3639 0001098  81.1755 278.9372 15.34398846 11571

JSON: /api/v1/satellites/68270 · /tle

For live sub-satellite position, see the globe view (requires WebGL).

§ Visibility from observer

Set your observer location to see the next 7 days of passes ≥ 10°. The values pass through the URL so the page stays shareable.

No JS? Fill the form by hand. The geolocation button needs JavaScript.